[[{"header":{"parameterUnit":"m.s-1","parameterCategory":1,"la1":30.2991,"la2":30.254,"lo1":-89.0895,"lo2":-89.0444,"dy":0.0017,"dx":0.0017,"nx":28,"ny":28,"refTime":"2024-08-27T03:00:00:Z","depth":0,"parameterNumber":2,"parameterNumberName":"U-component_of_WINDS"},"data":[0,0,0,0,0,0,0,0,0,0,0,0,0,0,0,0,0,0,0,0,0,0,0,0,0,0,0,0,0,0,0,0,0,0,0,0,0,0,0,0,0,0,0,0,0,0,0,0,0,0,0,0,0,0,0,0,0,0,-1.8273,-1.8273,0,-1.8323,-1.8324,-1.8325,-1.8333,-1.8333,-1.8332,-1.8332,-1.8384,-1.8386,-1.8387,0,0,0,0,0,0,0,0,0,0,0,0,0,-1.8183,-1.8185,-1.8273,-1.8273,-1.8274,-1.8323,-1.8324,-1.8325,-1.8333,-1.8333,-1.8332,-1.8332,-1.8383,-1.8385,-1.8387,0,0,0,0,0,0,0,0,0,0,0,0,0,-1.8227,-1.8186,-1.8273,-1.8284,-1.8286,-1.8323,-1.8324,-1.8325,-1.8333,-1.8333,-1.8332,-1.8331,-1.8383,-1.8385,-1.8388,-1.8417,0,0,-1.8396,-1.8397,0,0,0,0,0,0,0,0,-1.8224,-1.823,-1.8282,-1.8283,-1.8285,-1.8321,-1.8312,-1.8356,-1.8334,-1.8315,-1.8332,-1.8331,-1.8364,-1.8368,-1.8379,-1.842,-1.8422,-1.8396,-1.8398,-1.8399,-1.84,0,0,0,0,0,0,0,-1.8221,-1.8228,-1.8293,-1.8283,-1.8285,-1.8287,-1.8292,-1.832,-1.8342,-1.8317,-1.8318,-1.8323,-1.8364,-1.8376,-1.838,-1.8423,-1.8396,-1.8398,-1.84,-1.8401,-1.8491,-1.8492,0,0,0,0,0,0,-1.8216,-1.8226,-1.8291,-1.8294,-1.8253,-1.8289,-1.8295,-1.831,-1.8342,-1.8346,-1.8324,-1.8324,-1.8372,-1.8377,-1.8382,-1.8419,-1.8399,-1.8401,-1.8403,-1.8491,-1.8491,-1.8492,0,0,0,0,0,0,-1.8214,-1.8222,-1.8289,-1.826,-1.8269,-1.8291,-1.8308,-1.8312,-1.8323,-1.8348,-1.8352,-1.8332,-1.8371,-1.8378,-1.8409,-1.8421,-1.8403,-1.8405,-1.849,-1.8491,-1.8492,-1.8493,0,0,0,0,0,0,-1.8212,-1.8221,-1.8233,-1.826,-1.827,-1.8315,-1.8309,-1.8313,-1.8328,-1.8328,-1.8356,-1.836,-1.8371,-1.8405,-1.8411,-1.8424,-1.8407,-1.8489,-1.849,-1.8492,-1.8492,-1.8495,-1.8496,0,0,0,0,0,-1.8209,-1.8231,-1.8233,-1.8241,-1.8285,-1.8316,-1.8321,-1.8334,-1.8329,-1.8341,-1.8356,-1.8359,-1.8418,-1.8408,-1.8415,-1.8429,-1.8488,-1.849,-1.8491,-1.8491,-1.8494,-1.8496,0,0,0,0,0,0,-1.8204,-1.8235,-1.8238,-1.8269,-1.829,-1.8317,-1.8332,-1.8336,-1.8359,-1.8358,-1.8373,-1.8379,-1.8409,-1.8422,-1.8409,-1.846,-1.8453,-1.8456,-1.845,-1.8453,-1.8455,-1.8451,-1.8409,0,0,0,0,0,-1.8206,-1.8229,-1.8254,-1.828,-1.829,-1.8309,-1.8323,-1.8331,-1.8353,-1.8362,-1.8379,-1.84,-1.8424,-1.8439,-1.8462,-1.8494,-1.8501,-1.8508,-1.851,-1.8511,-1.8514,-1.8533,-1.8537,-1.8498,-1.8498,-1.8498,0,0,-1.8212,-1.8232,-1.8245,-1.828,-1.8296,-1.8319,-1.8317,-1.8341,-1.8358,-1.8365,-1.8396,-1.8409,-1.8434,-1.8466,-1.848,-1.8477,-1.8526,-1.8514,-1.8515,-1.8517,-1.8535,-1.8539,-1.8542,-1.8499,-1.8499,-1.8499,0,0,-1.8234,-1.8251,-1.8275,-1.8292,-1.8317,-1.833,-1.8336,-1.8362,-1.8372,-1.8402,-1.8409,-1.843,-1.8469,-1.8487,-1.8501,-1.8531,-1.8534,-1.8538,-1.8548,-1.8566,-1.8569,-1.8572,-1.8583,-1.8587,-1.854,-1.854,-1.854,0,-1.8238,-1.8273,-1.8286,-1.8311,-1.8326,-1.8334,-1.8358,-1.8374,-1.8406,-1.8416,-1.8412,-1.8463,-1.848,-1.8517,-1.8524,-1.8535,-1.8542,-1.8535,-1.8568,-1.8571,-1.8574,-1.8585,-1.8589,-1.8541,-1.8541,-1.8541,-1.8541,0,-1.8277,-1.8301,-1.8317,-1.8348,-1.8365,-1.8389,-1.8406,-1.8422,-1.8429,-1.8442,-1.8473,-1.8494,-1.8522,-1.8531,-1.8537,-1.8568,-1.8566,-1.8565,-1.8558,-1.8577,-1.8588,-1.8592,-1.8541,-1.8541,-1.8541,-1.8541,0,0,-1.8297,-1.8335,-1.8341,-1.8355,-1.8385,-1.8404,-1.8428,-1.8456,-1.8469,-1.8491,-1.8512,-1.8546,-1.8546,-1.8562,-1.8571,-1.8586,-1.861,-1.8584,-1.8585,-1.8588,-1.8646,-1.8647,-1.8651,-1.8612,-1.8613,-1.8614,-1.8644,0,-1.8323,-1.8367,-1.838,-1.8418,-1.8441,-1.8449,-1.8471,-1.8491,-1.8504,-1.8526,-1.854,-1.8564,-1.8561,-1.8571,-1.8587,-1.8603,-1.8621,-1.8601,-1.8633,-1.8634,-1.8627,-1.8657,-1.8658,-1.8685,-1.8648,-1.8649,-1.8649,0,-1.8359,-1.8382,-1.8422,-1.8449,-1.8459,-1.8478,-1.8505,-1.8525,-1.8548,-1.8557,-1.8575,-1.8583,-1.8609,-1.8601,-1.8638,-1.8624,-1.8638,-1.8648,-1.8649,-1.8653,-1.8643,-1.8662,-1.8694,-1.8699,-1.8656,-1.8655,-1.8655,0,-1.8371,-1.8411,-1.8441,-1.8453,-1.8485,-1.8498,-1.8512,-1.8535,-1.8551,-1.8574,-1.8585,-1.8611,-1.8625,-1.8645,-1.8659,-1.8652,-1.8695,-1.8688,-1.8704,-1.8703,-1.8713,-1.8712,-1.8748,-1.8721,-1.8721,-1.872,-1.872,0,-1.8399,-1.8423,-1.8447,-1.8465,-1.8492,-1.8507,-1.8534,-1.8548,-1.8569,-1.859,-1.8599,-1.8619,-1.8636,-1.8659,-1.867,-1.87,-1.8706,-1.8714,-1.8717,-1.8713,-1.8712,-1.8723,-1.8721,-1.8722,-1.8721,-1.8721,-1.8721,0,-1.8416,-1.8433,-1.8466,-1.8494,-1.8501,-1.852,-1.8545,-1.8563,-1.8576,-1.8603,-1.861,-1.8632,-1.8659,-1.8675,-1.8709,-1.8717,-1.8749,-1.8751,-1.8741,-1.8743,-1.8758,-1.8756,-1.8802,-1.8809,-1.8776,-1.8777,-1.8777,0,-1.8433,-1.8452,-1.8482,-1.8497,-1.8512,-1.8535,-1.8552,-1.8567,-1.8584,-1.8613,-1.8628,-1.8655,-1.8678,-1.872,-1.8739,-1.8765,-1.8768,-1.8782,-1.8772,-1.8768,-1.8769,-1.8768,-1.877,-1.8784,-1.8785,-1.8785,-1.8785,0,-1.8461,-1.8469,-1.8492,-1.8519,-1.8538,-1.856,-1.8581,-1.8593,-1.8613,-1.8631,-1.8659,-1.8676,-1.8711,-1.8739,-1.8767,-1.8781,-1.8787,-1.8788,-1.8793,-1.879,-1.8784,-1.8788,-1.8747,-1.8787,-1.8787,-1.8787,-1.8787,-1.8786,-1.848,-1.8497,-1.8522,-1.8547,-1.8565,-1.8586,-1.8604,-1.862,-1.8644,-1.8674,-1.8681,-1.8711,-1.8734,-1.8773,-1.8788,-1.8811,-1.8809,-1.8816,-1.8818,-1.882,-1.882,-1.878,-1.8816,-1.8816,-1.8816,-1.8816,-1.8816,0,-1.8509,-1.8525,-1.8549,-1.8579,-1.86,-1.8603,-1.8627,-1.8644,-1.867,-1.8692,-1.8714,-1.8746,-1.8773,-1.8794,-1.8822,-1.8836,-1.884,-1.8843,-1.8842,-1.8846,-1.882,-1.8813,-1.884,-1.884,-1.884,-1.884,-1.884,-1.884,-1.8527,-1.8557,-1.8567,-1.8607,-1.8623,-1.8652,-1.8665,-1.8684,-1.8702,-1.8737,-1.876,-1.8773,-1.8795,-1.8824,-1.8849,-1.8855,-1.8865,-1.8868,-1.8874,-1.885,-1.8847,-1.8845,-1.8839,-1.887,-1.887,-1.8898,-1.8898,-1.8898]},{"header":{"parameterUnit":"m.s-1","parameterCategory":1,"la1":30.2991,"la2":30.254,"lo1":-89.0895,"lo2":-89.0444,"dy":0.0017,"dx":0.0017,"nx":28,"ny":28,"refTime":"2024-08-27T03:00:00:Z","depth":0,"parameterNumber":3,"parameterNumberName":"V-component_of_WINDS"},"data":[0,0,0,0,0,0,0,0,0,0,0,0,0,0,0,0,0,0,0,0,0,0,0,0,0,0,0,0,0,0,0,0,0,0,0,0,0,0,0,0,0,0,0,0,0,0,0,0,0,0,0,0,0,0,0,0,0,0,-1.9228,-1.9227,0,-1.9126,-1.9125,-1.9124,-1.9049,-1.9048,-1.9048,-1.9047,-1.8938,-1.8936,-1.8934,0,0,0,0,0,0,0,0,0,0,0,0,0,-1.9354,-1.9352,-1.9228,-1.9227,-1.9225,-1.9126,-1.9125,-1.9123,-1.9049,-1.9048,-1.9048,-1.9047,-1.8939,-1.8936,-1.8933,0,0,0,0,0,0,0,0,0,0,0,0,0,-1.928,-1.9352,-1.9228,-1.9176,-1.9171,-1.9127,-1.9125,-1.9123,-1.9049,-1.9048,-1.9047,-1.9047,-1.894,-1.8936,-1.8933,-1.893,0,0,-1.8922,-1.8921,0,0,0,0,0,0,0,0,-1.9285,-1.9276,-1.9185,-1.918,-1.9174,-1.9099,-1.9129,-1.9058,-1.905,-1.9095,-1.9047,-1.9046,-1.8992,-1.8984,-1.8967,-1.8925,-1.8921,-1.8922,-1.892,-1.8919,-1.8918,0,0,0,0,0,0,0,-1.929,-1.928,-1.9187,-1.9184,-1.9177,-1.9157,-1.9146,-1.9116,-1.905,-1.9091,-1.9086,-1.9075,-1.8989,-1.8971,-1.8964,-1.8919,-1.8922,-1.8919,-1.8917,-1.8916,-1.887,-1.8871,0,0,0,0,0,0,-1.9304,-1.9285,-1.9191,-1.9184,-1.9228,-1.9156,-1.9143,-1.9124,-1.905,-1.9038,-1.9076,-1.9072,-1.8977,-1.8968,-1.896,-1.8952,-1.8919,-1.8915,-1.8913,-1.887,-1.8871,-1.8872,0,0,0,0,0,0,-1.9307,-1.9296,-1.9195,-1.9233,-1.9219,-1.9155,-1.9134,-1.9123,-1.9104,-1.9039,-1.9026,-1.907,-1.8976,-1.8965,-1.8939,-1.8948,-1.8914,-1.8911,-1.8868,-1.887,-1.8871,-1.8938,0,0,0,0,0,0,-1.9311,-1.9298,-1.9297,-1.9234,-1.9217,-1.9177,-1.9135,-1.9121,-1.9099,-1.9093,-1.903,-1.9018,-1.8974,-1.8944,-1.8935,-1.8942,-1.8908,-1.8867,-1.8869,-1.8871,-1.8934,-1.8941,-1.8947,0,0,0,0,0,-1.9315,-1.9318,-1.9297,-1.9286,-1.9215,-1.9177,-1.9168,-1.9119,-1.91,-1.9098,-1.9056,-1.902,-1.8948,-1.8942,-1.8932,-1.8938,-1.8867,-1.8869,-1.8871,-1.8931,-1.894,-1.8947,0,0,0,0,0,0,-1.9382,-1.9309,-1.9285,-1.9267,-1.923,-1.9165,-1.9161,-1.9129,-1.9094,-1.9089,-1.9029,-1.9015,-1.8995,-1.8964,-1.8958,-1.8931,-1.8903,-1.8903,-1.8953,-1.896,-1.8966,-1.8974,-1.8905,0,0,0,0,0,-1.9395,-1.9372,-1.9309,-1.93,-1.9282,-1.9225,-1.9207,-1.9173,-1.913,-1.9113,-1.9069,-1.9028,-1.8996,-1.8976,-1.8943,-1.893,-1.8914,-1.8928,-1.8935,-1.894,-1.894,-1.8931,-1.8936,-1.8878,-1.8878,-1.8878,0,0,-1.9421,-1.9378,-1.9367,-1.9312,-1.9279,-1.9256,-1.9212,-1.9189,-1.9171,-1.9109,-1.9083,-1.9049,-1.8999,-1.8979,-1.8968,-1.8952,-1.8953,-1.8942,-1.8947,-1.8945,-1.8933,-1.8939,-1.8944,-1.8879,-1.8879,-1.8879,0,0,-1.9457,-1.9422,-1.9411,-1.9379,-1.933,-1.9292,-1.929,-1.923,-1.9206,-1.9179,-1.9133,-1.911,-1.9056,-1.9023,-1.8998,-1.9023,-1.8989,-1.9014,-1.9046,-1.9038,-1.9043,-1.9046,-1.9055,-1.9059,-1.9015,-1.9015,-1.9015,0,-1.9495,-1.9459,-1.9409,-1.939,-1.9367,-1.9312,-1.93,-1.9271,-1.9213,-1.9198,-1.9181,-1.9114,-1.9076,-1.9048,-1.9054,-1.9037,-1.9031,-1.9021,-1.9046,-1.9049,-1.9052,-1.906,-1.9063,-1.9018,-1.9018,-1.9018,-1.9017,0,-1.9509,-1.9485,-1.9482,-1.9429,-1.9406,-1.939,-1.9337,-1.9319,-1.9287,-1.9251,-1.9224,-1.9178,-1.9135,-1.9125,-1.9093,-1.9093,-1.9084,-1.9058,-1.9028,-1.9062,-1.9068,-1.9071,-1.9023,-1.9022,-1.9021,-1.902,0,0,-1.9582,-1.9504,-1.9504,-1.948,-1.9422,-1.9402,-1.9383,-1.9343,-1.9329,-1.9291,-1.9274,-1.9231,-1.9206,-1.9179,-1.9143,-1.9135,-1.9158,-1.9109,-1.9107,-1.912,-1.9155,-1.9175,-1.9179,-1.9135,-1.9136,-1.9136,-1.9159,0,-1.9609,-1.9575,-1.953,-1.951,-1.9488,-1.9437,-1.942,-1.9383,-1.9349,-1.9323,-1.9285,-1.9256,-1.9225,-1.9209,-1.9199,-1.9158,-1.9164,-1.9155,-1.9117,-1.9117,-1.9131,-1.9183,-1.9204,-1.9228,-1.9161,-1.9161,-1.9162,0,-1.9635,-1.9602,-1.9581,-1.9527,-1.9515,-1.9502,-1.9462,-1.9439,-1.9395,-1.9371,-1.9342,-1.9303,-1.928,-1.9254,-1.9221,-1.9216,-1.9198,-1.9175,-1.9175,-1.9169,-1.9141,-1.9178,-1.9234,-1.9238,-1.9165,-1.9165,-1.9164,0,-1.9691,-1.9641,-1.9622,-1.9603,-1.9539,-1.9531,-1.9504,-1.9459,-1.9438,-1.9403,-1.9388,-1.935,-1.9329,-1.93,-1.9252,-1.9237,-1.9224,-1.9194,-1.9202,-1.9204,-1.9201,-1.9202,-1.9255,-1.919,-1.919,-1.919,-1.919,0,-1.9725,-1.9714,-1.9647,-1.9636,-1.9622,-1.957,-1.9558,-1.9525,-1.9486,-1.9467,-1.9419,-1.9401,-1.9339,-1.9314,-1.9276,-1.9254,-1.9245,-1.9224,-1.9214,-1.9228,-1.9231,-1.9215,-1.9212,-1.9191,-1.9191,-1.9191,-1.9191,0,-1.9785,-1.974,-1.9716,-1.9658,-1.9643,-1.9636,-1.9585,-1.9572,-1.9536,-1.9511,-1.9503,-1.9445,-1.9413,-1.9363,-1.9315,-1.9289,-1.9274,-1.9257,-1.929,-1.9284,-1.9295,-1.9295,-1.934,-1.9343,-1.9277,-1.9277,-1.9278,0,-1.981,-1.9801,-1.9743,-1.9727,-1.9702,-1.9678,-1.9657,-1.9606,-1.9585,-1.9536,-1.9528,-1.9493,-1.9461,-1.9412,-1.9365,-1.9328,-1.931,-1.9329,-1.9304,-1.9319,-1.931,-1.9312,-1.931,-1.9334,-1.9335,-1.9336,-1.9337,0,-1.9859,-1.9837,-1.981,-1.9775,-1.9753,-1.9722,-1.9689,-1.9679,-1.962,-1.9599,-1.9567,-1.9544,-1.9496,-1.9461,-1.9418,-1.9388,-1.9352,-1.9345,-1.9345,-1.9359,-1.9378,-1.9368,-1.9305,-1.9344,-1.9343,-1.9343,-1.9342,-1.9342,-1.9901,-1.9891,-1.985,-1.9821,-1.9792,-1.9762,-1.9747,-1.971,-1.9683,-1.9642,-1.9613,-1.9582,-1.9538,-1.9477,-1.9449,-1.9424,-1.9408,-1.9408,-1.9408,-1.9409,-1.9414,-1.9383,-1.9416,-1.9415,-1.9415,-1.9415,-1.9415,0,-1.9948,-1.9919,-1.9894,-1.985,-1.9828,-1.9799,-1.9761,-1.9744,-1.9718,-1.9682,-1.9653,-1.9616,-1.9582,-1.9533,-1.9496,-1.9484,-1.9467,-1.9476,-1.9476,-1.947,-1.943,-1.9434,-1.9491,-1.9491,-1.9491,-1.9491,-1.9491,-1.9491,-1.997,-1.9951,-1.9925,-1.9892,-1.9862,-1.9834,-1.9815,-1.9787,-1.9758,-1.9719,-1.9692,-1.9661,-1.9619,-1.9578,-1.9546,-1.9532,-1.952,-1.9535,-1.9516,-1.948,-1.9473,-1.9466,-1.9469,-1.9532,-1.9533,-1.9557,-1.9558,-1.9558]}]]